TimeEDT,TemperatureF,Dew PointF,Humidity,Sea Level PressureIn,VisibilityMPH,Wind Direction,Wind SpeedMPH,Gust SpeedMPH,PrecipitationIn,Events,Conditions,WindDirDegrees,DateUTC
12:53 AM,80.1,75.0,85,29.95,10.0,North,3.5,-,0.00,,Overcast,360,2012-10-07 04:53:00
1:53 AM,78.1,75.0,90,29.94,10.0,North,3.5,-,0.00,Rain,Light Rain,360,2012-10-07 05:53:00
2:53 AM,77.0,72.0,84,29.93,10.0,NE,3.5,-,0.00,,Overcast,50,2012-10-07 06:53:00
3:53 AM,77.0,73.0,88,29.89,10.0,Calm,Calm,-,N/A,,Overcast,0,2012-10-07 07:53:00
4:53 AM,78.1,73.0,84,29.88,10.0,Variable,3.5,-,N/A,,Overcast,0,2012-10-07 08:53:00
5:53 AM,78.1,73.9,87,29.89,10.0,Calm,Calm,-,N/A,,Overcast,0,2012-10-07 09:53:00
6:53 AM,78.1,73.0,84,29.91,10.0,North,4.6,-,N/A,,Mostly Cloudy,360,2012-10-07 10:53:00
7:53 AM,78.1,73.9,87,29.93,10.0,North,3.5,-,N/A,,Mostly Cloudy,350,2012-10-07 11:53:00
8:53 AM,79.0,73.0,82,29.94,10.0,North,5.8,-,N/A,,Mostly Cloudy,360,2012-10-07 12:53:00
9:53 AM,79.0,75.0,88,29.97,10.0,Calm,Calm,-,N/A,,Mostly Cloudy,0,2012-10-07 13:53:00
10:53 AM,80.1,75.9,87,29.98,10.0,Calm,Calm,-,0.01,Rain,Light Rain,0,2012-10-07 14:53:00
11:53 AM,84.9,77.0,77,29.97,10.0,NNE,3.5,-,0.01,,Mostly Cloudy,30,2012-10-07 15:53:00
12:53 PM,80.1,75.0,85,29.96,3.0,NNW,4.6,-,0.06,Rain,Light Rain,340,2012-10-07 16:53:00
1:53 PM,78.1,72.0,81,29.95,5.0,NE,11.5,20.7,0.01,Rain,Light Rain,50,2012-10-07 17:53:00
2:53 PM,79.0,70.0,74,29.93,7.0,ENE,8.1,-,0.09,,Mostly Cloudy,60,2012-10-07 18:53:00
3:53 PM,80.1,73.0,79,29.92,10.0,NNE,4.6,-,0.01,Rain,Light Rain,30,2012-10-07 19:53:00
4:53 PM,80.1,75.0,85,29.92,10.0,North,3.5,-,0.00,Rain,Light Rain,350,2012-10-07 20:53:00
5:53 PM,77.0,73.0,88,29.93,6.0,WNW,5.8,-,0.23,Rain,Light Rain,300,2012-10-07 21:53:00
6:53 PM,80.1,77.0,90,29.94,10.0,North,3.5,-,0.04,,Mostly Cloudy,360,2012-10-07 22:53:00
7:53 PM,80.1,75.9,87,29.95,10.0,Calm,Calm,-,0.00,Rain,Light Rain,0,2012-10-07 23:53:00
8:53 PM,80.1,75.9,87,29.96,10.0,NNE,4.6,-,0.00,,Mostly Cloudy,30,2012-10-08 00:53:00
9:53 PM,80.1,75.9,87,29.99,10.0,North,3.5,-,N/A,,Mostly Cloudy,360,2012-10-08 01:53:00
10:53 PM,79.0,75.9,90,29.98,10.0,Calm,Calm,-,N/A,,Mostly Cloudy,0,2012-10-08 02:53:00
11:53 PM,80.1,75.0,85,29.96,10.0,Variable,3.5,-,N/A,,Mostly Cloudy,0,2012-10-08 03:53:00